Year,Month,Day,Hour,Minute,Value (Times are PST for temperature in C)
2015,02,28,00,00,6.60
2015,02,28,00,01,6.60
2015,02,28,00,02,6.60
2015,02,28,00,03,6.50
2015,02,28,00,04,6.40
2015,02,28,00,05,6.40
2015,02,28,00,06,6.30
2015,02,28,00,07,6.30
2015,02,28,00,08,6.20
2015,02,28,00,09,6.20
2015,02,28,00,10,6.20
2015,02,28,00,11,6.20
2015,02,28,00,12,6.20
2015,02,28,00,13,6.10
2015,02,28,00,16,5.90
2015,02,28,00,17,5.80
2015,02,28,00,18,5.80
2015,02,28,00,19,5.70
2015,02,28,00,20,5.60
2015,02,28,00,21,5.60
2015,02,28,00,22,5.50
2015,02,28,00,23,5.50
2015,02,28,00,24,5.40
2015,02,28,00,25,5.40
2015,02,28,00,26,5.30
2015,02,28,00,27,5.30
2015,02,28,00,28,5.30
2015,02,28,00,29,5.20
2015,02,28,00,30,5.10
2015,02,28,00,31,5.10
2015,02,28,00,32,5.00
2015,02,28,00,33,4.90
2015,02,28,00,34,4.90
2015,02,28,00,35,4.90
2015,02,28,00,36,4.90
2015,02,28,00,37,4.90
2015,02,28,00,38,4.90
2015,02,28,00,39,4.90
2015,02,28,00,40,4.80
2015,02,28,00,41,4.80
2015,02,28,00,42,4.80
2015,02,28,00,43,4.90
2015,02,28,00,44,5.00
2015,02,28,00,45,5.10
2015,02,28,00,46,5.30
2015,02,28,00,47,5.40
2015,02,28,00,48,5.40
2015,02,28,00,49,5.50
2015,02,28,00,50,5.50
2015,02,28,00,51,5.50
2015,02,28,00,52,5.50
2015,02,28,00,53,5.50
2015,02,28,00,54,5.50
2015,02,28,00,55,5.40
2015,02,28,00,56,5.30
2015,02,28,00,57,5.30
2015,02,28,00,58,5.30
2015,02,28,00,59,5.30
2015,02,28,01,00,5.30
2015,02,28,01,01,5.30
2015,02,28,01,02,5.50
2015,02,28,01,03,5.60
2015,02,28,01,04,5.70
2015,02,28,01,05,5.70
2015,02,28,01,06,5.80
2015,02,28,01,07,5.80
2015,02,28,01,08,5.90
2015,02,28,01,09,5.90
2015,02,28,01,10,5.90
2015,02,28,01,11,5.80
2015,02,28,01,12,5.80
2015,02,28,01,13,5.80
2015,02,28,01,14,5.80
2015,02,28,01,15,5.80
2015,02,28,01,16,5.70
2015,02,28,01,17,5.70
2015,02,28,01,18,5.70
2015,02,28,01,19,5.70
2015,02,28,01,20,5.70
2015,02,28,01,21,5.70
2015,02,28,01,22,5.70
2015,02,28,01,23,5.70
2015,02,28,01,24,5.80
2015,02,28,01,25,5.80
2015,02,28,01,26,5.80
2015,02,28,01,27,5.80
2015,02,28,01,28,5.80
2015,02,28,01,29,5.80
2015,02,28,01,30,5.80
2015,02,28,01,31,5.80
2015,02,28,01,32,5.80
2015,02,28,01,33,5.80
2015,02,28,01,34,5.70
2015,02,28,01,35,5.70
2015,02,28,01,36,5.70
2015,02,28,01,37,5.70
2015,02,28,01,38,5.70
2015,02,28,01,39,5.70
2015,02,28,01,40,5.70
2015,02,28,01,41,5.70
2015,02,28,01,42,5.80
2015,02,28,01,43,5.90
2015,02,28,01,44,5.90
2015,02,28,01,45,5.90
2015,02,28,01,46,5.90
2015,02,28,01,47,5.80
2015,02,28,01,48,5.80
2015,02,28,01,49,5.70
2015,02,28,01,50,5.70
2015,02,28,01,51,5.50
2015,02,28,01,52,5.40
2015,02,28,01,53,5.30
2015,02,28,01,54,5.10
2015,02,28,01,55,5.10
2015,02,28,01,56,5.10
2015,02,28,01,57,5.10
2015,02,28,01,58,5.00
2015,02,28,01,59,4.90
2015,02,28,02,00,4.90
2015,02,28,02,01,4.90
2015,02,28,02,02,4.90
2015,02,28,02,03,4.90
2015,02,28,02,04,4.90
2015,02,28,02,05,4.90
2015,02,28,02,06,4.90
2015,02,28,02,07,4.90
2015,02,28,02,08,5.10
2015,02,28,02,09,5.10
2015,02,28,02,10,5.30
2015,02,28,02,11,5.40
2015,02,28,02,12,5.60
2015,02,28,02,13,5.70
2015,02,28,02,14,5.70
2015,02,28,02,15,5.90
2015,02,28,02,16,6.00
2015,02,28,02,17,6.00
2015,02,28,02,18,6.10
2015,02,28,02,19,6.10
2015,02,28,02,20,6.10
2015,02,28,02,21,6.10
2015,02,28,02,22,6.10
2015,02,28,02,23,6.10
2015,02,28,02,24,6.10
2015,02,28,02,25,6.10
2015,02,28,02,26,6.10
2015,02,28,02,27,6.10
2015,02,28,02,28,6.10
2015,02,28,02,29,6.10
2015,02,28,02,30,6.00
2015,02,28,02,31,6.00
2015,02,28,02,32,6.00
2015,02,28,02,33,5.90
2015,02,28,02,34,5.90
2015,02,28,02,35,5.90
2015,02,28,02,36,5.90
2015,02,28,02,37,5.90
2015,02,28,02,38,5.80
2015,02,28,02,39,5.90
2015,02,28,02,40,5.90
2015,02,28,02,41,5.90
2015,02,28,02,42,5.90
2015,02,28,02,43,5.90
2015,02,28,02,44,5.90
2015,02,28,02,45,5.90
2015,02,28,02,46,5.90
2015,02,28,02,47,5.90
2015,02,28,02,48,5.90
2015,02,28,02,49,5.90
2015,02,28,02,50,5.90
2015,02,28,02,51,5.90
2015,02,28,02,52,5.80
2015,02,28,02,53,5.80
2015,02,28,02,54,5.80
2015,02,28,02,55,5.80
2015,02,28,02,56,5.70
2015,02,28,02,57,5.70
2015,02,28,02,58,5.70
2015,02,28,02,59,5.80
2015,02,28,03,00,5.80
2015,02,28,03,01,5.80
2015,02,28,03,02,5.80
2015,02,28,03,03,5.80
2015,02,28,03,04,5.90
2015,02,28,03,05,5.90
2015,02,28,03,06,5.90
2015,02,28,03,07,5.90
2015,02,28,03,08,5.90
2015,02,28,03,09,5.90
2015,02,28,03,10,5.80
2015,02,28,03,11,5.80
2015,02,28,03,12,5.80
2015,02,28,03,13,5.80
2015,02,28,03,14,5.80
2015,02,28,03,15,5.70
2015,02,28,03,16,5.70
2015,02,28,03,17,5.70
2015,02,28,03,18,5.80
2015,02,28,03,19,5.80
2015,02,28,03,20,5.90
2015,02,28,03,21,5.90
2015,02,28,03,22,5.90
2015,02,28,03,23,5.90
2015,02,28,03,24,6.00
2015,02,28,03,25,6.00
2015,02,28,03,26,6.00
2015,02,28,03,27,6.00
2015,02,28,03,28,6.00
2015,02,28,03,29,6.00
2015,02,28,03,30,6.00
2015,02,28,03,31,6.00
2015,02,28,03,32,6.00
2015,02,28,03,33,6.00
2015,02,28,03,34,6.00
2015,02,28,03,35,6.10
2015,02,28,03,36,6.10
2015,02,28,03,37,6.20
2015,02,28,03,38,6.20
2015,02,28,03,39,6.20
2015,02,28,03,40,6.30
2015,02,28,03,41,6.30
2015,02,28,03,42,6.40
2015,02,28,03,43,6.40
2015,02,28,03,44,6.40
2015,02,28,03,45,6.40
2015,02,28,03,46,6.40
2015,02,28,03,47,6.40
2015,02,28,03,48,6.40
2015,02,28,03,49,6.40
2015,02,28,03,50,6.40
2015,02,28,03,51,6.40
2015,02,28,03,52,6.40
2015,02,28,03,53,6.30
2015,02,28,03,54,6.30
2015,02,28,03,55,6.30
2015,02,28,03,56,6.30
2015,02,28,03,57,6.30
2015,02,28,03,58,6.30
2015,02,28,03,59,6.30
2015,02,28,04,00,6.30
2015,02,28,04,01,6.30
2015,02,28,04,02,6.30
2015,02,28,04,03,6.30
2015,02,28,04,04,6.20
2015,02,28,04,05,6.20
2015,02,28,04,06,6.20
2015,02,28,04,07,6.20
2015,02,28,04,08,6.20
2015,02,28,04,09,6.20
2015,02,28,04,10,6.20
2015,02,28,04,11,6.20
2015,02,28,04,12,6.20
2015,02,28,04,13,6.20
2015,02,28,04,14,6.20
2015,02,28,04,15,6.20
2015,02,28,04,16,6.20
2015,02,28,04,17,6.20
2015,02,28,04,18,6.20
2015,02,28,04,19,6.20
2015,02,28,04,20,6.10
2015,02,28,04,21,6.10
2015,02,28,04,22,6.10
2015,02,28,04,23,6.10
2015,02,28,04,24,6.20
2015,02,28,04,25,6.20
2015,02,28,04,26,6.10
2015,02,28,04,27,6.20
2015,02,28,04,28,6.20
2015,02,28,04,29,6.20
2015,02,28,04,30,6.20
2015,02,28,04,31,6.20
2015,02,28,04,32,6.20
2015,02,28,04,33,6.20
2015,02,28,04,34,6.20
2015,02,28,04,35,6.20
2015,02,28,04,36,6.20
2015,02,28,04,37,6.20
2015,02,28,04,38,6.20
2015,02,28,04,39,6.10
2015,02,28,04,40,6.10
2015,02,28,04,41,6.10
2015,02,28,04,42,6.00
2015,02,28,04,43,6.00
2015,02,28,04,44,6.00
2015,02,28,04,45,5.90
2015,02,28,04,46,5.80
2015,02,28,04,47,5.80
2015,02,28,04,48,5.70
2015,02,28,04,49,5.70
2015,02,28,04,50,5.60
2015,02,28,04,51,5.60
2015,02,28,04,52,5.50
2015,02,28,04,53,5.50
2015,02,28,04,54,5.50
2015,02,28,04,55,5.40
2015,02,28,04,56,5.40
2015,02,28,04,57,5.40
2015,02,28,04,58,5.40
2015,02,28,04,59,5.30
2015,02,28,05,00,5.30
2015,02,28,05,01,5.30
2015,02,28,05,02,5.30
2015,02,28,05,03,5.30
2015,02,28,05,04,5.30
2015,02,28,05,05,5.30
2015,02,28,05,06,5.30
2015,02,28,05,07,5.20
2015,02,28,05,08,5.20
2015,02,28,05,09,5.20
2015,02,28,05,10,5.20
2015,02,28,05,11,5.20
2015,02,28,05,12,5.10
2015,02,28,05,13,5.10
2015,02,28,05,14,5.10
2015,02,28,05,15,5.10
2015,02,28,05,16,5.10
2015,02,28,05,17,5.10
2015,02,28,05,18,5.10
2015,02,28,05,19,5.10
2015,02,28,05,20,5.00
2015,02,28,05,21,4.90
2015,02,28,05,22,4.90
2015,02,28,05,23,4.90
2015,02,28,05,24,4.90
2015,02,28,05,25,4.90
2015,02,28,05,26,4.90
2015,02,28,05,27,4.90
2015,02,28,05,28,4.90
2015,02,28,05,29,4.90
2015,02,28,05,30,4.90
2015,02,28,05,31,4.90
2015,02,28,05,32,4.80
2015,02,28,05,33,4.80
2015,02,28,05,34,4.80
2015,02,28,05,35,4.70
2015,02,28,05,36,4.70
2015,02,28,05,37,4.70
2015,02,28,05,38,4.60
2015,02,28,05,39,4.60
2015,02,28,05,40,4.60
2015,02,28,05,41,4.60
2015,02,28,05,42,4.60
2015,02,28,05,43,4.60
2015,02,28,05,44,4.50
2015,02,28,05,45,4.50
2015,02,28,05,46,4.50
2015,02,28,05,47,4.60
2015,02,28,05,48,4.60
2015,02,28,05,49,4.60
2015,02,28,05,50,4.60
2015,02,28,05,51,4.60
2015,02,28,05,52,4.60
2015,02,28,05,53,4.60
2015,02,28,05,54,4.70
2015,02,28,05,55,4.70
2015,02,28,05,56,4.80
2015,02,28,05,57,4.80
2015,02,28,05,58,4.90
2015,02,28,05,59,4.90
2015,02,28,06,00,4.90
2015,02,28,06,01,4.90
2015,02,28,06,02,4.90
2015,02,28,06,03,4.90
2015,02,28,06,04,4.90
2015,02,28,06,05,4.90
2015,02,28,06,06,4.90
2015,02,28,06,07,4.80
2015,02,28,06,08,4.80
2015,02,28,06,09,4.80
2015,02,28,06,10,4.80
2015,02,28,06,11,4.80
2015,02,28,06,12,4.70
2015,02,28,06,13,4.70
2015,02,28,06,14,4.70
2015,02,28,06,15,4.70
2015,02,28,06,16,4.60
2015,02,28,06,17,4.60
2015,02,28,06,18,4.60
2015,02,28,06,19,4.60
2015,02,28,06,20,4.60
2015,02,28,06,21,4.60
2015,02,28,06,22,4.50
2015,02,28,06,23,4.50
2015,02,28,06,24,4.50
2015,02,28,06,25,4.50
2015,02,28,06,26,4.50
2015,02,28,06,27,4.60
2015,02,28,06,28,4.60
2015,02,28,06,29,4.60
2015,02,28,06,30,4.60
2015,02,28,06,31,4.60
2015,02,28,06,32,4.60
2015,02,28,06,33,4.70
2015,02,28,06,34,4.70
2015,02,28,06,35,4.70
2015,02,28,06,36,4.80
2015,02,28,06,37,4.80
2015,02,28,06,38,4.80
2015,02,28,06,39,4.80
2015,02,28,06,40,4.80
2015,02,28,06,41,4.80
2015,02,28,06,42,4.80
2015,02,28,06,43,4.80
2015,02,28,06,44,4.80
2015,02,28,06,45,4.80
2015,02,28,06,46,4.80
2015,02,28,06,47,4.80
2015,02,28,06,48,4.80
2015,02,28,06,49,4.80
2015,02,28,06,50,4.80
2015,02,28,06,51,4.80
2015,02,28,06,52,4.80
2015,02,28,06,53,4.80
2015,02,28,06,54,4.80
2015,02,28,06,55,4.80
2015,02,28,06,56,4.80
2015,02,28,06,57,4.80
2015,02,28,06,58,4.70
2015,02,28,06,59,4.70
2015,02,28,07,00,4.70
2015,02,28,07,01,4.70
2015,02,28,07,02,4.70
2015,02,28,07,03,4.70
2015,02,28,07,04,4.70
2015,02,28,07,05,4.60
2015,02,28,07,06,4.60
2015,02,28,07,07,4.60
2015,02,28,07,08,4.60
2015,02,28,07,09,4.60
2015,02,28,07,10,4.60
2015,02,28,07,11,4.60
2015,02,28,07,12,4.60
2015,02,28,07,13,4.60
2015,02,28,07,14,4.60
2015,02,28,07,15,4.60
2015,02,28,07,16,4.50
2015,02,28,07,17,4.50
2015,02,28,07,18,4.50
2015,02,28,07,19,4.50
2015,02,28,07,20,4.40
2015,02,28,07,21,4.40
2015,02,28,07,22,4.40
2015,02,28,07,23,4.30
2015,02,28,07,24,4.20
2015,02,28,07,25,4.20
2015,02,28,07,26,4.20
2015,02,28,07,27,4.10
2015,02,28,07,28,4.10
2015,02,28,07,29,4.00
2015,02,28,07,30,4.00
2015,02,28,07,31,3.90
2015,02,28,07,32,3.80
2015,02,28,07,33,3.80
2015,02,28,07,34,3.80
2015,02,28,07,35,3.80
2015,02,28,07,36,3.70
2015,02,28,07,37,3.70
2015,02,28,07,38,3.70
2015,02,28,07,39,3.60
2015,02,28,07,40,3.60
2015,02,28,07,41,3.60
2015,02,28,07,42,3.60
2015,02,28,07,43,3.60
2015,02,28,07,44,3.50
2015,02,28,07,45,3.50
2015,02,28,07,46,3.50
2015,02,28,07,47,3.60
2015,02,28,07,48,3.60
2015,02,28,07,49,3.60
2015,02,28,07,50,3.70
2015,02,28,07,51,3.70
2015,02,28,07,52,3.70
2015,02,28,07,53,3.80
2015,02,28,07,54,3.80
2015,02,28,07,55,3.80
2015,02,28,07,56,3.80
2015,02,28,07,57,3.80
2015,02,28,07,58,3.80
2015,02,28,07,59,3.80
2015,02,28,08,00,3.80
2015,02,28,08,01,3.90
2015,02,28,08,02,4.00
2015,02,28,08,03,4.00
2015,02,28,08,04,4.00
2015,02,28,08,05,4.10
2015,02,28,08,06,4.20
2015,02,28,08,07,4.30
2015,02,28,08,08,4.40
2015,02,28,08,09,4.50
2015,02,28,08,10,4.50
2015,02,28,08,11,4.60
2015,02,28,08,12,4.70
2015,02,28,08,13,4.70
2015,02,28,08,14,4.80
2015,02,28,08,15,4.80
2015,02,28,08,16,4.90
2015,02,28,08,17,5.00
2015,02,28,08,18,5.10
2015,02,28,08,19,5.10
2015,02,28,08,20,5.20
2015,02,28,08,21,5.30
2015,02,28,08,22,5.40
2015,02,28,08,23,5.50
2015,02,28,08,24,5.60
2015,02,28,08,25,5.60
2015,02,28,08,26,5.70
2015,02,28,08,27,5.70
2015,02,28,08,28,5.80
2015,02,28,08,29,5.90
2015,02,28,08,30,6.00
2015,02,28,08,31,6.00
2015,02,28,08,32,6.10
2015,02,28,08,33,6.20
2015,02,28,08,34,6.20
2015,02,28,08,35,6.30
2015,02,28,08,36,6.40
2015,02,28,08,37,6.40
2015,02,28,08,38,6.60
2015,02,28,08,39,6.60
2015,02,28,08,40,6.70
2015,02,28,08,41,6.70
2015,02,28,08,42,6.80
2015,02,28,08,43,6.80
2015,02,28,08,44,6.80
2015,02,28,08,45,6.90
2015,02,28,08,46,6.90
2015,02,28,08,47,7.00
2015,02,28,08,48,7.00
2015,02,28,08,49,7.00
2015,02,28,08,50,7.10
2015,02,28,08,51,7.10
2015,02,28,08,52,7.10
2015,02,28,08,53,7.20
2015,02,28,08,54,7.20
2015,02,28,08,55,7.30
2015,02,28,08,56,7.30
2015,02,28,08,57,7.30
2015,02,28,08,58,7.30
2015,02,28,08,59,7.30
2015,02,28,09,00,7.40
2015,02,28,09,01,7.50
2015,02,28,09,02,7.60
2015,02,28,09,03,7.60
2015,02,28,09,04,7.60
2015,02,28,09,05,7.60
2015,02,28,09,06,7.60
2015,02,28,09,07,7.60
2015,02,28,09,08,7.60
2015,02,28,09,09,7.70
2015,02,28,09,10,7.70
2015,02,28,09,11,7.70
2015,02,28,09,12,7.70
2015,02,28,09,13,7.70
2015,02,28,09,14,7.70
2015,02,28,09,15,7.70
2015,02,28,09,16,7.70
2015,02,28,09,17,7.70
2015,02,28,09,18,7.70
2015,02,28,09,19,7.70
2015,02,28,09,20,7.80
2015,02,28,09,21,7.80
2015,02,28,09,22,7.80
2015,02,28,09,23,7.80
2015,02,28,09,24,7.80
2015,02,28,09,25,7.90
2015,02,28,09,26,7.90
2015,02,28,09,27,8.00
2015,02,28,09,28,8.00
2015,02,28,09,29,8.00
2015,02,28,09,30,8.10
2015,02,28,09,31,8.10
2015,02,28,09,32,8.20
2015,02,28,09,33,8.20
2015,02,28,09,34,8.20
2015,02,28,09,35,8.20
2015,02,28,09,36,8.20
2015,02,28,09,37,8.30
2015,02,28,09,38,8.30
2015,02,28,09,39,8.40
2015,02,28,09,40,8.50
2015,02,28,09,41,8.50
2015,02,28,09,42,8.50
2015,02,28,09,43,8.60
2015,02,28,09,44,8.60
2015,02,28,09,45,8.60
2015,02,28,09,46,8.60
2015,02,28,09,47,8.70
2015,02,28,09,48,8.70
2015,02,28,09,49,8.70
2015,02,28,09,50,8.70
2015,02,28,09,51,8.70
2015,02,28,09,52,8.70
2015,02,28,09,53,8.70
2015,02,28,09,54,8.70
2015,02,28,09,55,8.70
2015,02,28,09,56,8.70
2015,02,28,09,57,8.70
2015,02,28,09,58,8.70
2015,02,28,09,59,8.70
2015,02,28,10,00,8.70
2015,02,28,10,01,8.80
2015,02,28,10,02,8.90
2015,02,28,10,03,8.90
2015,02,28,10,04,9.00
2015,02,28,10,05,9.00
2015,02,28,10,06,9.10
2015,02,28,10,07,9.20
2015,02,28,10,08,9.20
2015,02,28,10,09,9.20
2015,02,28,10,10,9.20
2015,02,28,10,11,9.20
2015,02,28,10,12,9.20
2015,02,28,10,13,9.20
2015,02,28,10,14,9.20
2015,02,28,10,15,9.20
2015,02,28,10,16,9.20
2015,02,28,10,17,9.20
2015,02,28,10,18,9.20
2015,02,28,10,19,9.20
2015,02,28,10,20,9.20
2015,02,28,10,21,9.20
2015,02,28,10,22,9.20
2015,02,28,10,23,9.30
2015,02,28,10,24,9.30
2015,02,28,10,25,9.30
2015,02,28,10,26,9.30
2015,02,28,10,27,9.30
2015,02,28,10,28,9.40
2015,02,28,10,29,9.40
2015,02,28,10,30,9.40
2015,02,28,10,31,9.50
2015,02,28,10,32,9.50
2015,02,28,10,33,9.50
2015,02,28,10,34,9.60
2015,02,28,10,35,9.60
2015,02,28,10,36,9.70
2015,02,28,10,37,9.70
2015,02,28,10,38,9.70
2015,02,28,10,39,9.80
2015,02,28,10,40,9.80
2015,02,28,10,41,9.90
2015,02,28,10,42,9.90
2015,02,28,10,43,9.90
2015,02,28,10,44,9.90
2015,02,28,10,45,10.00
2015,02,28,10,46,10.10
2015,02,28,10,47,10.10
2015,02,28,10,48,10.10
2015,02,28,10,49,10.20
2015,02,28,10,50,10.30
2015,02,28,10,51,10.30
2015,02,28,10,52,10.30
2015,02,28,10,53,10.30
2015,02,28,10,54,10.40
2015,02,28,10,55,10.40
2015,02,28,10,56,10.40
2015,02,28,10,57,10.40
2015,02,28,10,58,10.40
2015,02,28,10,59,10.30
2015,02,28,11,00,10.20
2015,02,28,11,01,10.20
2015,02,28,11,02,10.20
2015,02,28,11,03,10.20
2015,02,28,11,04,10.20
2015,02,28,11,05,10.20
2015,02,28,11,06,10.30
2015,02,28,11,07,10.30
2015,02,28,11,08,10.30
2015,02,28,11,09,10.30
2015,02,28,11,10,10.30
2015,02,28,11,11,10.30
2015,02,28,11,12,10.40
2015,02,28,11,13,10.50
2015,02,28,11,14,10.60
2015,02,28,11,15,10.60
2015,02,28,11,16,10.70
2015,02,28,11,17,10.80
2015,02,28,11,18,10.80
2015,02,28,11,19,10.90
2015,02,28,11,20,10.90
2015,02,28,11,21,10.80
2015,02,28,11,22,10.80
2015,02,28,11,23,10.70
2015,02,28,11,24,10.60
2015,02,28,11,25,10.60
2015,02,28,11,26,10.70
2015,02,28,11,27,10.70
2015,02,28,11,28,10.70
2015,02,28,11,29,10.80
2015,02,28,11,30,10.80
2015,02,28,11,31,10.90
2015,02,28,11,32,10.90
2015,02,28,11,33,10.90
2015,02,28,11,34,10.90
2015,02,28,11,35,10.90
2015,02,28,11,36,11.00
2015,02,28,11,37,11.10
2015,02,28,11,38,11.20
2015,02,28,11,39,11.30
2015,02,28,11,40,11.30
2015,02,28,11,41,11.20
2015,02,28,11,42,11.10
2015,02,28,11,43,11.10
2015,02,28,11,44,10.90
2015,02,28,11,45,10.90
2015,02,28,11,46,10.90
2015,02,28,11,47,10.80
2015,02,28,11,48,10.80
2015,02,28,11,49,10.80
2015,02,28,11,50,10.80
2015,02,28,11,51,10.90
2015,02,28,11,52,10.90
2015,02,28,11,53,10.90
2015,02,28,11,54,10.90
2015,02,28,11,55,11.00
2015,02,28,11,56,11.10
2015,02,28,11,57,11.10
2015,02,28,11,58,11.10
2015,02,28,11,59,11.10
2015,02,28,12,00,11.10
2015,02,28,12,01,11.00
2015,02,28,12,02,10.90
2015,02,28,12,03,10.80
2015,02,28,12,04,10.80
2015,02,28,12,05,10.80
2015,02,28,12,06,10.80
2015,02,28,12,07,10.80
2015,02,28,12,08,10.90
2015,02,28,12,09,10.90
2015,02,28,12,10,10.90
2015,02,28,12,11,11.00
2015,02,28,12,12,11.10
2015,02,28,12,13,11.20
2015,02,28,12,14,11.20
2015,02,28,12,15,11.20
2015,02,28,12,16,11.20
2015,02,28,12,17,11.20
2015,02,28,12,18,11.30
2015,02,28,12,19,11.30
2015,02,28,12,20,11.30
2015,02,28,12,21,11.40
2015,02,28,12,22,11.40
2015,02,28,12,23,11.40
2015,02,28,12,24,11.40
2015,02,28,12,25,11.40
2015,02,28,12,26,11.40
2015,02,28,12,27,11.40
2015,02,28,12,28,11.50
2015,02,28,12,29,11.60
2015,02,28,12,30,11.60
2015,02,28,12,31,11.60
2015,02,28,12,32,11.60
2015,02,28,12,33,11.50
2015,02,28,12,34,11.40
2015,02,28,12,35,11.50
2015,02,28,12,36,11.60
2015,02,28,12,37,11.60
2015,02,28,12,38,11.50
2015,02,28,12,39,11.40
2015,02,28,12,40,11.40
2015,02,28,12,41,11.40
2015,02,28,12,42,11.40
2015,02,28,12,43,11.40
2015,02,28,12,44,11.40
2015,02,28,12,45,11.50
2015,02,28,12,46,11.60
2015,02,28,12,47,11.60
2015,02,28,12,48,11.60
2015,02,28,12,49,11.60
2015,02,28,12,50,11.70
2015,02,28,12,51,11.80
2015,02,28,12,52,11.80
2015,02,28,12,53,11.90
2015,02,28,12,54,11.90
2015,02,28,12,55,11.90
2015,02,28,12,56,11.90
2015,02,28,12,57,12.00
2015,02,28,12,58,12.00
2015,02,28,12,59,12.00
2015,02,28,13,00,11.90
2015,02,28,13,01,11.90
2015,02,28,13,02,11.80
2015,02,28,13,03,11.80
2015,02,28,13,04,11.80
2015,02,28,13,05,11.80
2015,02,28,13,06,11.70
2015,02,28,13,07,11.70
2015,02,28,13,08,11.70
2015,02,28,13,09,11.70
2015,02,28,13,10,11.70
2015,02,28,13,11,11.70
2015,02,28,13,12,11.70
2015,02,28,13,13,11.70
2015,02,28,13,14,11.80
2015,02,28,13,15,11.80
2015,02,28,13,16,11.80
2015,02,28,13,17,11.80
2015,02,28,13,18,11.80
2015,02,28,13,19,11.80
2015,02,28,13,20,11.80
2015,02,28,13,21,11.80
2015,02,28,13,22,11.80
2015,02,28,13,23,11.80
2015,02,28,13,24,11.90
2015,02,28,13,25,11.90
2015,02,28,13,26,12.00
2015,02,28,13,27,12.00
2015,02,28,13,28,12.00
2015,02,28,13,29,12.00
2015,02,28,13,30,12.10
2015,02,28,13,31,12.10
2015,02,28,13,32,12.10
2015,02,28,13,33,12.10
2015,02,28,13,34,12.10
2015,02,28,13,35,12.00
2015,02,28,13,36,11.90
2015,02,28,13,37,11.80
2015,02,28,13,38,11.90
2015,02,28,13,39,11.90
2015,02,28,13,40,11.90
2015,02,28,13,41,11.80
2015,02,28,13,42,11.80
2015,02,28,13,43,11.80
2015,02,28,13,44,11.80
2015,02,28,13,45,11.80
2015,02,28,13,46,11.70
2015,02,28,13,47,11.60
2015,02,28,13,48,11.50
2015,02,28,13,49,11.40
2015,02,28,13,50,11.40
2015,02,28,13,51,11.40
2015,02,28,13,52,11.40
2015,02,28,13,53,11.40
2015,02,28,13,54,11.50
2015,02,28,13,55,11.60
2015,02,28,13,56,11.60
2015,02,28,13,57,11.60
2015,02,28,13,58,11.80
2015,02,28,13,59,11.80
2015,02,28,14,00,11.90
2015,02,28,14,01,11.90
2015,02,28,14,02,12.00
2015,02,28,14,03,12.00
2015,02,28,14,04,12.10
2015,02,28,14,05,12.10
2015,02,28,14,06,12.10
2015,02,28,14,07,12.00
2015,02,28,14,08,11.90
2015,02,28,14,09,11.80
2015,02,28,14,10,11.80
2015,02,28,14,11,11.80
2015,02,28,14,12,11.70
2015,02,28,14,13,11.70
2015,02,28,14,14,11.60
2015,02,28,14,15,11.60
2015,02,28,14,16,11.60
2015,02,28,14,17,11.60
2015,02,28,14,18,11.60
2015,02,28,14,19,11.50
2015,02,28,14,20,11.40
2015,02,28,14,21,11.60
2015,02,28,14,22,11.60
2015,02,28,14,23,11.70
2015,02,28,14,24,11.80
2015,02,28,14,25,11.90
2015,02,28,14,26,11.90
2015,02,28,14,27,11.90
2015,02,28,14,28,11.90
2015,02,28,14,29,11.90
2015,02,28,14,30,11.90
2015,02,28,14,31,11.90
2015,02,28,14,32,11.90
2015,02,28,14,33,12.00
2015,02,28,14,34,12.00
2015,02,28,14,35,12.00
2015,02,28,14,36,12.00
2015,02,28,14,37,12.00
2015,02,28,14,38,12.10
2015,02,28,14,39,12.10
2015,02,28,14,40,12.20
2015,02,28,14,41,12.20
2015,02,28,14,42,12.00
2015,02,28,14,43,12.00
2015,02,28,14,44,12.00
2015,02,28,14,45,12.00
2015,02,28,14,46,11.90
2015,02,28,14,47,11.80
2015,02,28,14,48,11.70
2015,02,28,14,49,11.60
2015,02,28,14,50,11.60
2015,02,28,14,51,11.60
2015,02,28,14,52,11.60
2015,02,28,14,53,11.50
2015,02,28,14,54,11.60
2015,02,28,14,55,11.60
2015,02,28,14,56,11.60
2015,02,28,14,57,11.60
2015,02,28,14,58,11.60
2015,02,28,14,59,11.70
2015,02,28,15,00,11.80
2015,02,28,15,01,11.80
2015,02,28,15,02,11.80
2015,02,28,15,03,11.90
2015,02,28,15,04,12.00
2015,02,28,15,05,12.00
2015,02,28,15,06,12.10
2015,02,28,15,07,12.20
2015,02,28,15,08,12.30
2015,02,28,15,09,12.30
2015,02,28,15,10,12.30
2015,02,28,15,11,12.30
2015,02,28,15,12,12.30
2015,02,28,15,13,12.30
2015,02,28,15,14,12.30
2015,02,28,15,15,12.30
2015,02,28,15,16,12.30
2015,02,28,15,17,12.20
2015,02,28,15,18,12.20
2015,02,28,15,19,12.20
2015,02,28,15,20,12.20
2015,02,28,15,21,12.10
2015,02,28,15,22,12.10
2015,02,28,15,23,12.10
2015,02,28,15,24,12.20
2015,02,28,15,25,12.20
2015,02,28,15,26,12.30
2015,02,28,15,27,12.30
2015,02,28,15,28,12.30
2015,02,28,15,29,12.20
2015,02,28,15,30,12.20
2015,02,28,15,31,12.20
2015,02,28,15,32,12.30
2015,02,28,15,33,12.30
2015,02,28,15,34,12.30
2015,02,28,15,35,12.30
2015,02,28,15,36,12.30
2015,02,28,15,37,12.30
2015,02,28,15,38,12.40
2015,02,28,15,39,12.50
2015,02,28,15,40,12.50
2015,02,28,15,41,12.60
2015,02,28,15,42,12.70
2015,02,28,15,43,12.80
2015,02,28,15,44,12.80
2015,02,28,15,45,12.80
2015,02,28,15,46,12.80
2015,02,28,15,47,12.90
2015,02,28,15,48,12.90
2015,02,28,15,49,13.00
2015,02,28,15,50,13.10
2015,02,28,15,51,13.20
2015,02,28,15,52,13.20
2015,02,28,15,53,13.30
2015,02,28,15,54,13.30
2015,02,28,15,55,13.30
2015,02,28,15,56,13.30
2015,02,28,15,57,13.30
2015,02,28,15,58,13.30
2015,02,28,15,59,13.20
2015,02,28,16,00,13.10
2015,02,28,16,01,13.00
2015,02,28,16,02,12.90
2015,02,28,16,03,12.90
2015,02,28,16,04,12.80
2015,02,28,16,05,12.80
2015,02,28,16,06,12.80
2015,02,28,16,07,12.80
2015,02,28,16,08,12.80
2015,02,28,16,09,12.80
2015,02,28,16,10,12.80
2015,02,28,16,11,12.80
2015,02,28,16,12,12.80
2015,02,28,16,13,12.80
2015,02,28,16,14,12.80
2015,02,28,16,15,12.80
2015,02,28,16,16,12.80
2015,02,28,16,17,12.80
2015,02,28,16,18,12.80
2015,02,28,16,19,12.80
2015,02,28,16,20,12.80
2015,02,28,16,21,12.80
2015,02,28,16,22,12.80
2015,02,28,16,23,12.80
2015,02,28,16,24,12.80
2015,02,28,16,25,12.80
2015,02,28,16,26,12.80
2015,02,28,16,27,12.80
2015,02,28,16,28,12.80
2015,02,28,16,29,12.80
2015,02,28,16,30,12.80
2015,02,28,16,31,12.80
2015,02,28,16,32,12.80
2015,02,28,16,33,12.80
2015,02,28,16,34,12.70
2015,02,28,16,35,12.70
2015,02,28,16,36,12.70
2015,02,28,16,37,12.60
2015,02,28,16,38,12.60
2015,02,28,16,39,12.60
2015,02,28,16,40,12.60
2015,02,28,16,41,12.60
2015,02,28,16,42,12.60
2015,02,28,16,43,12.50
2015,02,28,16,44,12.50
2015,02,28,16,45,12.50
2015,02,28,16,46,12.40
2015,02,28,16,47,12.40
2015,02,28,16,48,12.40
2015,02,28,16,49,12.40
2015,02,28,16,50,12.30
2015,02,28,16,51,12.30
2015,02,28,16,52,12.30
2015,02,28,16,53,12.30
2015,02,28,16,54,12.30
2015,02,28,16,55,12.30
2015,02,28,16,56,12.30
2015,02,28,16,57,12.30
2015,02,28,16,58,12.30
2015,02,28,16,59,12.20
2015,02,28,17,00,12.20
2015,02,28,17,01,12.20
2015,02,28,17,02,12.20
2015,02,28,17,03,12.20
2015,02,28,17,04,12.20
2015,02,28,17,05,12.30
2015,02,28,17,06,12.30
2015,02,28,17,07,12.30
2015,02,28,17,08,12.20
2015,02,28,17,09,12.20
2015,02,28,17,10,12.20
2015,02,28,17,11,12.20
2015,02,28,17,12,12.10
2015,02,28,17,13,12.10
2015,02,28,17,14,12.10
2015,02,28,17,15,12.10
2015,02,28,17,16,12.00
2015,02,28,17,17,12.00
2015,02,28,17,18,11.90
2015,02,28,17,19,11.80
2015,02,28,17,20,11.80
2015,02,28,17,21,11.70
2015,02,28,17,22,11.50
2015,02,28,17,23,11.40
2015,02,28,17,24,11.20
2015,02,28,17,25,11.10
2015,02,28,17,26,11.00
2015,02,28,17,27,10.90
2015,02,28,17,28,10.80
2015,02,28,17,29,10.70
2015,02,28,17,30,10.70
2015,02,28,17,31,10.60
2015,02,28,17,32,10.50
2015,02,28,17,33,10.40
2015,02,28,17,34,10.40
2015,02,28,17,35,10.30
2015,02,28,17,36,10.20
2015,02,28,17,37,10.10
2015,02,28,17,38,10.10
2015,02,28,17,39,10.00
2015,02,28,17,40,9.90
2015,02,28,17,41,9.80
2015,02,28,17,42,9.80
2015,02,28,17,43,9.70
2015,02,28,17,44,9.70
2015,02,28,17,45,9.70
2015,02,28,17,46,9.60
2015,02,28,17,47,9.60
2015,02,28,17,48,9.50
2015,02,28,17,49,9.50